SL-8 R/B (21876 NORAD) Tracking and Keplerian Element Data

This shows tracking and keplerian element data for the satellite.

Feedback or suggestion? Click here.




ElementValue
Catalog21876
NameSL-8 R/B
Epoch Orbit50127
Epoch Day15.94859241
Epoch Year2022
RAAN313.1784
Inclination82.9285
Eccentricity0.0035819
Argument of Perigee43.2082
Mean Anonmoly24.5157
Mean Motion13.75695243
Decay Rate5.2E-07
L11 21876U 92008B 22015.94859241 .00000052 00000+0 37864-4 0 9993
L22 21876 82.9285 313.1784 0035819 43.2082 24.5157 13.75695243501276

Live tracking and technical data element details for SL-8 R/B (NORAD 21876). SL-8 R/B can be tracked NOW for your location showing map with azimuth and elevation plus other details from your city location.

Track the satellite on the map from your city or location and see movement details for azimuth, elevation, latitude, longitude, range, height, and movement on the map or in text.







IsCatalogInMostPopularTable: catalog: 21876, numindb: 313
Update: records affected: 1



GetName: 21876 SL-8 R/B

Hit Count: updated at: Mon, 17 Jan 2022 01:10:07 GMT